Time,TemperatureF,DewpointF,PressureIn,WindDirection,WindDirectionDegrees,WindSpeedMPH,WindSpeedGustMPH,Humidity,HourlyPrecipIn,Conditions,Clouds,dailyrainin,SolarRadiationWatts/m^2,SoftwareType,DateUTC
2013-09-28 00:04:00,64.0,55.0,-100.00,ENE,76,16.0,23.0,73,0.00,,,0.00,0.000000,,2013-09-28 04:04:00,
2013-09-28 00:13:00,64.0,55.0,-100.00,ENE,76,16.0,23.0,73,0.00,,,0.00,0.000000,,2013-09-28 04:13:00,
2013-09-28 00:25:00,64.0,55.0,-100.00,ENE,76,16.0,23.0,73,0.00,,,0.00,0.000000,,2013-09-28 04:25:00,
2013-09-28 00:54:00,64.0,54.0,-100.00,ENE,73,11.0,20.0,69,0.00,,,0.00,0.000000,,2013-09-28 04:54:00,
2013-09-28 01:03:00,64.0,54.0,-100.00,ENE,73,11.0,20.0,69,0.00,,,0.00,0.000000,,2013-09-28 05:03:00,
2013-09-28 01:13:00,64.0,54.0,-100.00,ENE,73,11.0,20.0,69,0.00,,,0.00,0.000000,,2013-09-28 05:13:00,
2013-09-28 01:22:00,64.0,54.0,-100.00,ENE,73,11.0,20.0,69,0.00,,,0.00,0.000000,,2013-09-28 05:22:00,
2013-09-28 01:53:00,64.0,53.0,-100.00,ENE,72,5.0,20.0,68,0.00,,,0.00,0.000000,,2013-09-28 05:53:00,
2013-09-28 02:02:00,64.0,53.0,-100.00,ENE,72,5.0,20.0,68,0.00,,,0.00,0.000000,,2013-09-28 06:02:00,
2013-09-28 02:13:00,64.0,53.0,-100.00,ENE,72,5.0,20.0,68,0.00,,,0.00,0.000000,,2013-09-28 06:13:00,
2013-09-28 02:22:00,64.0,53.0,-100.00,ENE,72,5.0,20.0,68,0.00,,,0.00,0.000000,,2013-09-28 06:22:00,
2013-09-28 02:52:00,63.0,54.0,-100.00,East,99,0.0,0.0,73,0.00,,,-99.99,0.000000,,2013-09-28 06:52:00,
2013-09-28 03:02:00,63.0,54.0,-100.00,East,99,0.0,0.0,73,0.00,,,-99.99,0.000000,,2013-09-28 07:02:00,
2013-09-28 03:12:00,63.0,54.0,-100.00,East,99,0.0,0.0,73,0.00,,,-99.99,0.000000,,2013-09-28 07:12:00,
2013-09-28 03:22:00,63.0,54.0,-100.00,East,99,0.0,0.0,73,0.00,,,-99.99,0.000000,,2013-09-28 07:22:00,
2013-09-28 03:52:00,63.0,55.0,-100.00,ENE,71,0.0,0.0,74,0.00,,,0.00,0.000000,,2013-09-28 07:52:00,
2013-09-28 04:02:00,63.0,55.0,-100.00,ENE,71,0.0,0.0,74,0.00,,,0.00,0.000000,,2013-09-28 08:02:00,
2013-09-28 04:13:00,63.0,55.0,-100.00,ENE,71,0.0,0.0,74,0.00,,,0.00,0.000000,,2013-09-28 08:13:00,
2013-09-28 04:22:00,63.0,55.0,-100.00,ENE,71,0.0,0.0,74,0.00,,,0.00,0.000000,,2013-09-28 08:22:00,
2013-09-28 04:53:00,63.0,55.0,-100.00,ENE,70,0.0,0.0,74,0.00,,,-99.99,0.000000,,2013-09-28 08:53:00,
2013-09-28 05:02:00,63.0,55.0,-100.00,ENE,70,0.0,0.0,74,0.00,,,-99.99,0.000000,,2013-09-28 09:02:00,
2013-09-28 05:12:00,63.0,55.0,-100.00,ENE,70,0.0,0.0,74,0.00,,,-99.99,0.000000,,2013-09-28 09:12:00,
2013-09-28 05:22:00,63.0,55.0,-100.00,ENE,70,0.0,0.0,74,0.00,,,-99.99,0.000000,,2013-09-28 09:22:00,
2013-09-28 06:13:00,62.0,60.0,-100.00,SSE,161,0.0,0.0,94,0.00,,,0.00,0.000000,,2013-09-28 10:13:00,
2013-09-28 06:22:00,62.0,60.0,-100.00,SSE,161,0.0,0.0,94,0.00,,,0.00,0.000000,,2013-09-28 10:22:00,
2013-09-28 06:52:00,63.0,61.0,-100.00,East,83,0.0,0.0,93,0.00,,,0.00,0.000000,,2013-09-28 10:52:00,
2013-09-28 07:03:00,63.0,61.0,-100.00,East,83,0.0,0.0,93,0.00,,,0.00,0.000000,,2013-09-28 11:03:00,
2013-09-28 07:12:00,63.0,61.0,-100.00,East,83,0.0,0.0,93,0.00,,,0.00,0.000000,,2013-09-28 11:12:00,
2013-09-28 07:22:00,63.0,61.0,-100.00,East,83,0.0,0.0,93,0.00,,,0.00,0.000000,,2013-09-28 11:22:00,
2013-09-28 08:12:00,63.0,63.0,-100.00,ENE,76,0.0,0.0,100,0.00,,,0.00,8.000000,,2013-09-28 12:12:00,
2013-09-28 08:22:00,63.0,63.0,-100.00,ENE,76,0.0,0.0,100,0.00,,,0.00,8.000000,,2013-09-28 12:22:00,
2013-09-28 08:52:00,63.0,62.0,-100.00,East,79,0.0,0.0,98,0.00,,,0.00,60.000000,,2013-09-28 12:52:00,
2013-09-28 09:02:00,63.0,62.0,-100.00,East,79,0.0,0.0,98,0.00,,,0.00,60.000000,,2013-09-28 13:02:00,
2013-09-28 09:12:00,63.0,62.0,-100.00,East,79,0.0,0.0,98,0.00,,,0.00,60.000000,,2013-09-28 13:12:00,
2013-09-28 09:22:00,63.0,62.0,-100.00,East,79,0.0,0.0,98,0.00,,,0.00,60.000000,,2013-09-28 13:22:00,
2013-09-28 09:52:00,66.0,61.0,-100.00,ENE,75,0.0,0.0,83,0.00,,,0.00,251.000000,,2013-09-28 13:52:00,
2013-09-28 10:02:00,66.0,61.0,-100.00,ENE,75,0.0,0.0,83,0.00,,,0.00,251.000000,,2013-09-28 14:02:00,
2013-09-28 10:12:00,66.0,61.0,-100.00,ENE,75,0.0,0.0,83,0.00,,,0.00,251.000000,,2013-09-28 14:12:00,
2013-09-28 10:22:00,66.0,61.0,-100.00,ENE,75,0.0,0.0,83,0.00,,,0.00,251.000000,,2013-09-28 14:22:00,
2013-09-28 10:52:00,68.0,59.0,-100.00,ENE,75,0.0,0.0,73,0.00,,,0.00,472.000000,,2013-09-28 14:52:00,
2013-09-28 11:03:00,68.0,59.0,-100.00,ENE,75,0.0,0.0,73,0.00,,,0.00,472.000000,,2013-09-28 15:03:00,
2013-09-28 11:12:00,68.0,59.0,-100.00,ENE,75,0.0,0.0,73,0.00,,,0.00,472.000000,,2013-09-28 15:12:00,
2013-09-28 11:23:00,68.0,59.0,-100.00,ENE,75,0.0,0.0,73,0.00,,,0.00,472.000000,,2013-09-28 15:23:00,
2013-09-28 11:44:00,-999.0,-99.9,-100.00,ENE,68,0.0,-999.0,-999,0.00,,,0.00,,,2013-09-28 15:44:00,
2013-09-28 11:54:00,-999.0,-99.9,-100.00,ENE,68,0.0,-999.0,-999,0.00,,,0.00,,,2013-09-28 15:54:00,
2013-09-28 12:05:00,-999.0,-99.9,-100.00,ENE,68,0.0,-999.0,-999,0.00,,,0.00,,,2013-09-28 16:05:00,
2013-09-28 12:14:00,-999.0,-99.9,-100.00,ENE,68,0.0,-999.0,-999,0.00,,,0.00,,,2013-09-28 16:14:00,
2013-09-28 12:24:00,-999.0,-99.9,-100.00,ENE,68,0.0,-999.0,-999,0.00,,,0.00,,,2013-09-28 16:24:00,
2013-09-28 12:54:00,71.0,58.0,-100.00,ENE,76,0.0,0.0,64,0.00,,,0.00,695.000000,,2013-09-28 16:54:00,
2013-09-28 13:03:00,71.0,58.0,-100.00,ENE,76,0.0,0.0,64,0.00,,,0.00,695.000000,,2013-09-28 17:03:00,
2013-09-28 13:13:00,71.0,58.0,-100.00,ENE,76,0.0,0.0,64,0.00,,,0.00,695.000000,,2013-09-28 17:13:00,
2013-09-28 13:23:00,71.0,58.0,-100.00,ENE,76,0.0,0.0,64,0.00,,,0.00,695.000000,,2013-09-28 17:23:00,
2013-09-28 13:52:00,72.0,58.0,-100.00,ENE,74,0.0,0.0,62,0.00,,,0.00,717.000000,,2013-09-28 17:52:00,
2013-09-28 14:02:00,72.0,58.0,-100.00,ENE,74,0.0,0.0,62,0.00,,,0.00,717.000000,,2013-09-28 18:02:00,
2013-09-28 14:12:00,72.0,58.0,-100.00,ENE,74,0.0,0.0,62,0.00,,,0.00,717.000000,,2013-09-28 18:12:00,
2013-09-28 14:22:00,72.0,58.0,-100.00,ENE,74,0.0,0.0,62,0.00,,,0.00,717.000000,,2013-09-28 18:22:00,
2013-09-28 14:52:00,70.0,60.0,-100.00,East,83,0.0,0.0,70,0.00,,,0.00,725.000000,,2013-09-28 18:52:00,
2013-09-28 15:02:00,70.0,60.0,-100.00,East,83,0.0,0.0,70,0.00,,,0.00,725.000000,,2013-09-28 19:02:00,
2013-09-28 15:11:00,70.0,60.0,-100.00,East,83,0.0,0.0,70,0.00,,,0.00,725.000000,,2013-09-28 19:11:00,
2013-09-28 15:22:00,70.0,60.0,-100.00,East,83,0.0,0.0,70,0.00,,,0.00,725.000000,,2013-09-28 19:22:00,
2013-09-28 16:12:00,69.0,61.0,-100.00,East,91,0.0,0.0,77,0.00,,,0.00,636.000000,,2013-09-28 20:12:00,
2013-09-28 17:55:00,67.0,62.0,-100.00,East,92,0.0,0.0,83,0.00,,,0.00,329.000000,,2013-09-28 21:55:00,
2013-09-28 18:04:00,67.0,62.0,-100.00,East,92,0.0,0.0,83,0.00,,,0.00,329.000000,,2013-09-28 22:04:00,
2013-09-28 18:14:00,67.0,62.0,-100.00,East,92,0.0,0.0,83,0.00,,,0.00,329.000000,,2013-09-28 22:14:00,
2013-09-28 18:23:00,67.0,62.0,-100.00,East,92,0.0,0.0,83,0.00,,,0.00,329.000000,,2013-09-28 22:23:00,
2013-09-28 18:54:00,66.0,61.0,-100.00,East,87,0.0,0.0,85,0.00,,,0.00,66.000000,,2013-09-28 22:54:00,
2013-09-28 19:03:00,66.0,61.0,-100.00,East,87,0.0,0.0,85,0.00,,,0.00,66.000000,,2013-09-28 23:03:00,
2013-09-28 19:13:00,66.0,61.0,-100.00,East,87,0.0,0.0,85,0.00,,,0.00,66.000000,,2013-09-28 23:13:00,
2013-09-28 19:22:00,66.0,61.0,-100.00,East,87,0.0,0.0,85,0.00,,,0.00,66.000000,,2013-09-28 23:22:00,
2013-09-28 19:53:00,64.0,59.0,-100.00,ENE,74,0.0,0.0,85,0.00,,,0.00,4.000000,,2013-09-28 23:53:00,
2013-09-28 20:02:00,64.0,59.0,-100.00,ENE,74,0.0,0.0,85,0.00,,,0.00,4.000000,,2013-09-29 00:02:00,
2013-09-28 20:12:00,64.0,59.0,-100.00,ENE,74,0.0,0.0,85,0.00,,,0.00,4.000000,,2013-09-29 00:12:00,
2013-09-28 20:22:00,64.0,59.0,-100.00,ENE,74,0.0,0.0,85,0.00,,,0.00,4.000000,,2013-09-29 00:22:00,
2013-09-28 20:52:00,64.0,60.0,-100.00,ENE,72,0.0,0.0,87,0.00,,,0.00,0.000000,,2013-09-29 00:52:00,
2013-09-28 21:02:00,64.0,60.0,-100.00,ENE,72,0.0,0.0,87,0.00,,,0.00,0.000000,,2013-09-29 01:02:00,
2013-09-28 21:12:00,64.0,60.0,-100.00,ENE,72,0.0,0.0,87,0.00,,,0.00,0.000000,,2013-09-29 01:12:00,
2013-09-28 21:22:00,64.0,60.0,-100.00,ENE,72,0.0,0.0,87,0.00,,,0.00,0.000000,,2013-09-29 01:22:00,
2013-09-28 21:52:00,64.0,62.0,-100.00,ENE,74,0.0,0.0,94,0.00,,,0.00,0.000000,,2013-09-29 01:52:00,
2013-09-28 22:03:00,64.0,62.0,-100.00,ENE,74,0.0,0.0,94,0.00,,,0.00,0.000000,,2013-09-29 02:03:00,
2013-09-28 22:12:00,64.0,62.0,-100.00,ENE,74,0.0,0.0,94,0.00,,,0.00,0.000000,,2013-09-29 02:12:00,
2013-09-28 22:22:00,64.0,62.0,-100.00,ENE,74,0.0,0.0,94,0.00,,,0.00,0.000000,,2013-09-29 02:22:00,